This is the latest recevied weather packets stored in our database for station/object W8BS. If no packets are shown the sender has not sent any weather packets the latest 10 day(s).
| Time | Temp. | Humidity | Pressure | Rain* | Wind** | Luminosity | Snow |
|---|---|---|---|---|---|---|---|
| 1778024668 | 18.89° C | 54% | 1010 hPa | 0 mm | - | 16 W/m² | - |
| 1778024364 | 18.89° C | 54% | 1010.1 hPa | 0 mm | - | 19 W/m² | - |
| 1778024062 | 18.89° C | 54% | 1010 hPa | 0 mm | - | 23 W/m² | - |
| 1778023759 | 19.44° C | 54% | 1009.7 hPa | 0 mm | - | 25 W/m² | - |
| 1778023457 | 19.44° C | 53% | 1009.9 hPa | 0 mm | - | 26 W/m² | - |
| 1778023153 | 19.44° C | 52% | 1010 hPa | 0 mm | - | 26 W/m² | - |
| 1778022851 | 20° C | 52% | 1009.8 hPa | 0 mm | - | 26 W/m² | - |
| 1778022549 | 20° C | 51% | 1009.7 hPa | 0 mm | - | 29 W/m² | - |
| 1778022246 | 20° C | 50% | 1009.7 hPa | 0 mm | - | 31 W/m² | - |
| 1778021942 | 20.56° C | 49% | 1009.6 hPa | 0 mm | - | 33 W/m² | - |
| 1778021640 | 20.56° C | 49% | 1009.6 hPa | 0 mm | - | 41 W/m² | - |
| 1778021335 | 20.56° C | 49% | 1009.5 hPa | 0 mm | - | 49 W/m² | - |
| 1778021033 | 20.56° C | 49% | 1009.6 hPa | 0 mm | - | 52 W/m² | - |
| 1778020730 | 20.56° C | 49% | 1009.7 hPa | 0 mm | - | 54 W/m² | - |
| 1778020426 | 20.56° C | 48% | 1009.9 hPa | 0 mm | - | 75 W/m² | - |
| 1778020122 | 20.56° C | 49% | 1009.7 hPa | 0 mm | - | 98 W/m² | - |
| 1778019819 | 21.11° C | 48% | 1010 hPa | 0 mm | - | 96 W/m² | - |
| 1778019516 | 21.11° C | 47% | 1010 hPa | 0 mm | - | 110 W/m² | - |
| 1778019213 | 21.11° C | 47% | 1010.1 hPa | 0 mm | - | 107 W/m² | - |
| 1778018910 | 21.11° C | 47% | 1010.1 hPa | 0 mm | - | 130 W/m² | - |
| 1778018607 | 21.11° C | 46% | 1010.1 hPa | 0 mm | - | 145 W/m² | - |
| 1778018305 | 21.67° C | 46% | 1010.3 hPa | 0 mm | - | 175 W/m² | - |
| 1778018002 | 21.11° C | 47% | 1010.1 hPa | 0 mm | - | 152 W/m² | - |
| 1778017700 | 21.11° C | 47% | 1010.3 hPa | 0 mm | - | 130 W/m² | - |
| 1778017398 | 21.67° C | 46% | 1010.2 hPa | 0 mm | - | 156 W/m² | - |
* Rain latest hour (hover to see other rain measurements)
** Current wind speed in m/s (hover to see current wind gust speed)